Theta_e
356 357 358 355 357 358 352 352 352 355 355 353 352 352 351 348 347 346 350 364 362 362 360 361 361 362 362 361 360 360 358 355 357 358 357 358 357 358 357 356 356 356 355
359 364 360 366 359 361 357 357 361 357 355 358 357 355 354 354 353 353 350 358 364 363 362 361 361 363 364 363 361 361 362 360 359 358 360 360 360 360 358 357 356 357 355
363 362 361 360 362 362 362 363 361 361 358 356 358 358 356 357 355 355 357 355 360 365 365 365 365 365 367 363 364 363 362 362 362 360 360 362 361 361 359 358 358 358 358
361 362 362 358 361 360 363 357 357 364 364 355 356 360 358 357 356 354 356 355 354 356 365 366 366 365 366 365 365 364 364 363 363 362 362 361 362 361 361 359 358 359 359
359 360 356 360 360 358 357 356 357 357 351 363 356 357 357 361 359 355 355 357 358 355 358 363 365 364 365 365 365 364 365 363 363 362 362 362 361 362 361 360 359 359 359
360 361 356 360 360 360 358 358 354 358 357 355 352 348 353 355 356 356 356 358 361 361 359 360 361 359 364 365 365 365 365 364 363 363 362 363 363 362 360 359 358 359 359
364 365 360 365 362 366 359 360 358 362 354 360 354 349 353 355 351 352 357 358 356 360 360 362 362 361 359 363 364 365 366 365 363 363 363 361 360 359 360 358 357 357 359
365 366 367 362 363 361 363 362 363 362 357 359 354 357 344 348 345 351 359 355 355 359 357 361 362 363 363 361 361 364 365 364 365 362 361 360 358 356 357 356 356 356 355
365 366 366 366 365 363 364 361 358 357 352 361 358 352 340 346 347 351 355 355 355 360 361 359 361 367 367 363 364 364 363 361 364 363 361 357 351 351 354 352 351 349 353
360 359 360 364 366 371 365 362 363 362 359 352 355 356 354 351 345 342 350 354 356 356 358 357 360 362 362 362 366 365 363 361 362 363 360 358 354 352 349 352 352 350 345
363 363 363 361 362 364 368 363 363 363 355 352 350 354 354 357 353 344 342 345 353 355 352 360 356 360 359 361 363 364 361 359 358 360 361 360 358 354 352 352 355 355 347
361 359 358 359 360 360 360 363 359 357 355 355 359 360 356 351 347 343 344 345 338 344 355 353 354 361 359 363 363 363 360 358 357 356 358 361 359 359 359 359 359 358 357
358 355 356 357 355 357 355 354 355 356 356 354 356 351 352 354 353 350 347 337 336 341 340 346 346 361 362 365 360 359 359 355 353 352 353 355 358 359 360 359 360 361 361
353 354 354 352 348 348 347 347 342 342 345 346 348 351 345 344 343 342 339 337 333 334 338 344 345 349 355 363 362 359 359 349 351 349 348 348 348 351 352 353 354 357 358
348 349 344 343 342 343 345 346 341 342 344 342 341 342 342 340 340 342 341 338 334 330 331 340 339 355 349 354 359 356 359 352 349 348 346 345 346 347 348 349 349 350 350
344 343 342 342 343 344 344 345 344 346 343 341 338 345 344 340 340 339 338 339 338 334 330 336 338 342 350 347 350 354 354 356 349 348 346 343 343 344 345 345 346 346 347
343 343 343 343 342 341 342 341 341 340 339 340 341 340 341 344 338 337 337 337 335 335 331 335 339 345 351 350 349 350 349 349 348 346 345 343 341 342 342 343 343 343 343
341 342 343 342 341 340 341 340 338 338 337 337 339 341 340 340 343 346 340 347 342 343 335 339 340 338 347 351 354 352 343 342 344 348 346 343 340 339 339 338 338 337 337
340 340 341 341 340 339 338 339 340 340 339 338 340 339 339 341 341 341 342 341 340 340 341 336 336 337 340 342 345 350 352 352 345 347 345 343 340 339 337 335 333 331 328
340 341 341 341 340 338 337 336 336 336 336 338 339 342 340 337 338 338 338 342 341 340 340 336 336 335 336 343 343 339 340 341 341 341 345 344 350 343 341 336 334 332 326
339 340 340 339 338 336 335 336 336 334 334 333 336 337 340 334 330 331 332 336 337 336 334 334 334 336 337 339 339 340 336 337 347 350 346 345 348 349 350 342 346 339 333
339 339 338 337 337 334 329 329 329 333 332 331 329 330 334 337 335 333 333 333 332 334 335 334 333 335 338 340 340 337 337 336 337 349 344 342 350 348 339 337 330 327 328
338 337 336 337 337 338 328 326 328 331 332 331 330 327 327 330 335 333 335 334 334 333 333 337 335 337 338 340 339 337 339 338 337 341 343 337 345 344 347 337 326 326 324
337 336 335 334 336 335 326 327 326 332 333 332 329 326 328 330 330 328 329 331 333 336 340 337 340 337 336 335 335 336 340 342 344 346 342 333 344 343 346 332 322 322 320
335 335 334 334 335 336 325 325 327 331 330 330 329 324 329 328 319 320 327 329 330 333 327 327 327 323 323 323 325 333 334 332 330 342 334 332 337 336 347 347 330 320 318
334 332 332 335 329 334 324 322 324 328 327 324 325 326 325 325 317 316 324 327 327 329 329 331 332 329 327 333 327 336 333 327 328 330 326 327 334 335 328 343 345 332 330
Wind_Speed
3 4 2 3 4 6 4 4 2 3 4 7 9 10 8 9 8 4 2 17 17 16 14 13 13 13 14 14 14 14 14 14 14 13 13 14 14 12 12 11 11 12 12
5 3 2 2 5 2 4 2 2 4 4 3 6 7 9 7 10 7 6 10 19 17 17 16 15 15 16 17 16 16 16 16 15 15 15 14 14 13 13 13 13 12 11
3 4 3 4 7 2 2 2 4 4 6 7 6 8 9 7 8 6 5 5 8 18 20 19 18 17 17 18 17 16 16 17 17 17 16 15 15 14 14 14 14 13 13
1 3 3 5 2 3 4 4 5 2 5 7 6 3 5 8 8 10 9 9 9 11 16 20 20 18 17 18 18 17 17 17 18 18 17 17 17 16 16 16 16 16 15
4 5 4 3 3 3 5 4 2 4 6 3 8 6 4 4 9 7 10 8 6 7 8 19 21 19 19 18 18 19 18 18 18 17 17 17 17 17 18 18 18 18 17
4 5 4 1 5 4 3 1 4 6 6 7 8 6 8 9 9 8 7 4 4 7 5 8 10 13 20 20 20 21 21 20 19 18 18 18 18 18 18 18 19 19 19
5 4 6 4 5 3 4 5 6 6 7 3 2 7 4 9 10 8 10 9 9 10 9 7 9 5 11 21 20 22 21 21 19 20 18 17 16 16 16 16 17 19 20
5 5 6 5 3 4 0 4 7 6 4 4 3 6 5 5 11 19 1 3 3 6 4 9 6 6 5 10 14 20 19 20 21 21 18 14 9 8 12 14 13 16 20
4 4 4 3 4 7 4 4 2 2 6 4 5 5 5 4 1 7 7 3 3 4 2 4 5 3 6 8 10 15 16 16 18 18 18 16 7 16 15 11 14 14 14
1 3 1 3 3 4 4 3 2 2 2 2 2 2 3 2 1 7 5 5 2 6 9 5 4 7 8 9 10 2 17 14 12 11 15 24 25 25 22 17 16 20 20
4 5 3 3 4 3 3 3 2 2 2 3 4 3 5 2 2 3 8 11 5 4 5 2 8 3 9 9 4 5 13 12 10 9 10 23 27 30 25 25 25 22 23
3 3 2 3 3 5 6 5 6 4 4 5 6 4 2 1 2 2 5 11 10 8 2 1 4 3 5 4 5 14 12 9 9 9 10 11 25 26 27 27 29 26 28
4 4 1 2 2 3 4 4 4 6 5 3 3 5 4 6 5 6 10 8 10 8 7 3 8 2 3 4 5 7 9 11 11 10 10 11 13 22 24 20 22 24 25
2 2 1 2 4 6 7 5 6 4 5 4 5 5 6 6 7 5 6 8 8 8 9 4 4 3 3 4 4 6 6 8 7 10 10 9 10 11 12 12 13 13 15
4 1 1 2 3 4 5 7 5 5 6 5 6 5 5 6 7 4 5 4 7 8 7 7 6 5 4 4 3 5 5 14 10 10 11 11 11 11 12 13 13 12 12
2 2 3 3 4 5 6 8 6 6 6 6 6 7 5 6 8 6 6 6 6 7 9 8 6 9 6 6 6 7 4 11 16 16 14 12 11 12 12 12 12 12 11
2 2 1 2 2 3 4 5 7 7 6 6 5 5 5 5 5 6 6 5 5 6 8 7 8 6 6 6 8 8 9 10 8 15 10 10 11 10 11 11 12 12 12
3 2 1 1 2 3 5 6 6 6 5 6 5 5 6 6 5 7 6 4 5 5 7 7 7 7 5 6 7 5 7 9 8 10 12 13 10 9 9 10 11 11 11
2 3 3 1 3 4 3 4 4 6 5 5 7 5 6 8 7 8 8 8 8 5 4 6 7 8 4 5 3 6 6 6 7 14 16 11 10 10 11 10 10 10 9
1 2 1 1 3 3 3 3 3 3 4 6 2 2 2 3 7 8 8 6 6 7 5 7 8 7 5 3 5 6 7 4 6 8 6 2 13 14 13 8 5 5 6
3 1 2 3 3 4 3 4 5 3 4 5 6 2 4 4 1 5 7 9 8 7 8 7 5 6 7 8 7 5 7 8 7 3 5 3 2 4 6 6 5 6 4
2 2 3 4 4 4 9 6 6 10 3 5 6 7 8 9 9 10 7 9 8 7 8 7 7 5 5 7 6 6 5 7 4 4 6 6 4 7 6 6 7 10 11
4 3 4 5 5 4 8 4 4 8 7 4 6 6 8 5 4 7 5 11 11 10 9 7 6 7 5 3 5 6 7 7 7 7 4 7 4 6 5 7 10 12 9
4 4 3 5 6 1 9 6 3 8 10 4 6 7 6 7 8 6 9 8 7 7 9 6 3 4 6 6 6 7 9 10 9 3 3 4 2 3 5 6 5 9 9
4 4 4 4 6 4 9 7 5 8 10 4 6 5 6 7 6 7 8 8 7 8 2 2 3 4 5 6 7 8 5 7 3 2 6 4 4 4 5 5 6 8 7
5 5 3 4 1 5 9 8 6 8 9 6 5 8 8 3 4 3 6 10 4 5 6 5 7 7 9 10 9 5 7 7 4 2 6 6 4 3 5 4 6 8 7
Wind_Direction
276 243 317 274 304 319 169 222 232 221 211 246 230 218 235 279 285 270 139 154 168 182 198 215 222 227 222 218 204 204 198 197 204 204 199 195 198 197 195 201 195 193 190
276 26 238 272 278 321 262 0 316 269 199 317 339 278 283 261 221 231 260 170 178 185 194 210 224 232 229 224 221 210 207 204 202 208 205 199 197 199 202 202 205 203 207
198 179 264 194 191 321 300 296 283 263 296 275 233 267 264 277 291 262 294 303 192 195 197 198 208 222 225 223 221 216 213 210 205 206 204 206 203 206 206 209 213 210 210
248 180 258 200 125 212 191 253 258 115 221 266 259 214 239 226 236 242 222 218 231 211 200 200 201 208 220 221 217 217 213 214 212 211 208 208 208 208 211 213 215 214 213
189 282 221 160 198 238 160 225 172 213 266 289 279 266 252 206 229 236 236 213 231 268 185 189 201 202 210 217 216 216 214 214 216 214 216 217 214 213 212 216 220 221 218
240 237 244 266 265 88 247 62 179 243 211 252 263 260 202 207 217 209 202 236 208 206 234 152 207 204 206 209 210 212 214 213 211 211 214 216 218 219 219 220 221 223 224
217 231 269 181 239 187 275 269 278 206 296 279 274 310 299 279 236 223 198 194 195 193 193 205 219 201 195 203 211 209 209 214 215 210 210 217 225 228 227 226 224 226 224
244 235 249 296 276 289 275 239 253 319 240 354 330 267 298 340 6 325 347 345 338 156 209 203 239 239 222 196 210 207 204 211 214 211 203 205 220 265 254 242 248 238 236
269 231 266 232 275 275 241 269 272 306 318 320 342 317 317 68 114 275 316 147 216 296 236 188 248 283 278 262 176 201 202 208 221 216 210 175 170 257 257 243 255 273 272
319 290 267 345 315 300 307 269 234 221 186 253 7 2 267 240 357 295 225 10 314 261 294 234 217 204 235 239 234 181 177 188 206 225 213 183 192 218 234 236 239 243 253
15 16 21 326 315 301 272 287 80 332 309 323 307 217 224 259 332 327 320 320 249 147 219 286 307 261 204 218 182 164 164 173 191 211 214 197 202 207 217 224 233 225 232
145 72 25 360 342 342 6 345 16 2 351 333 321 304 259 268 143 178 263 272 307 327 239 291 284 8 26 344 31 128 145 177 203 215 220 217 205 215 216 220 228 228 229
134 118 349 340 350 347 315 327 310 301 277 293 255 281 227 208 208 240 253 302 294 317 307 30 290 107 70 61 87 2 173 186 203 211 219 210 208 221 232 242 238 241 234
54 76 81 3 339 329 327 307 285 309 345 320 299 293 295 275 270 287 297 310 300 292 297 247 248 247 58 76 117 198 270 194 203 201 209 213 217 223 235 239 245 250 246
138 137 26 24 9 348 341 334 315 323 338 306 321 295 288 290 291 292 283 265 280 289 288 331 328 113 147 320 136 290 291 163 194 206 199 210 224 232 236 239 238 242 248
2 34 29 12 13 9 359 347 341 36 338 319 313 17 325 307 328 312 293 298 298 293 293 303 309 328 355 338 302 276 331 183 195 204 197 200 210 221 227 237 235 231 241
118 89 40 38 33 7 358 346 335 300 326 320 312 301 310 297 298 308 311 299 286 279 280 289 332 326 355 306 285 306 297 298 271 185 183 207 215 220 223 228 231 232 234
169 148 106 75 354 4 356 348 327 339 312 311 323 309 318 327 316 254 265 257 289 303 288 299 281 281 310 296 272 295 292 296 317 150 190 205 211 219 223 225 227 224 221
164 120 130 63 327 336 347 336 335 335 328 323 20 336 338 340 324 344 331 328 322 316 266 283 302 281 284 287 295 264 259 267 255 186 205 187 191 212 224 224 224 225 232
158 90 295 252 280 289 318 358 358 348 333 335 346 356 341 9 348 336 308 303 338 313 288 283 286 294 270 358 2 357 325 277 326 346 304 164 189 210 217 210 240 243 254
112 346 266 256 280 270 237 36 329 297 331 328 328 329 57 27 302 302 312 343 321 313 306 313 310 320 346 349 15 328 326 332 350 45 339 352 261 46 148 93 84 59 5
182 187 259 268 259 298 83 63 340 312 325 306 333 326 312 211 220 233 255 273 292 305 306 320 309 344 344 326 17 356 330 326 321 34 339 305 108 102 61 65 69 76 74
193 219 251 274 276 234 139 119 317 297 313 332 307 318 304 79 23 324 318 268 265 249 262 301 293 315 328 1 343 318 315 307 295 350 338 308 147 94 90 99 74 77 75
215 230 253 270 273 225 163 175 238 283 281 274 303 302 298 306 48 338 320 289 304 264 249 251 301 354 339 342 330 297 279 278 264 250 353 282 348 72 128 105 115 121 115
223 232 243 258 256 217 179 190 230 275 274 295 282 283 294 302 68 25 311 288 301 306 181 275 258 226 244 253 276 297 332 286 31 15 38 319 14 320 151 171 156 182 170
248 276 246 249 19 294 178 193 222 270 284 285 290 230 177 265 90 20 309 299 264 298 310 232 240 239 241 228 238 307 329 313 316 129 25 327 337 334 310 163 190 175 196